TimeEDT,TemperatureF,Dew PointF,Humidity,Sea Level PressureIn,VisibilityMPH,Wind Direction,Wind SpeedMPH,Gust SpeedMPH,PrecipitationIn,Events,Conditions,WindDirDegrees,DateUTC
12:15 AM,50.2,46.9,89,29.96,10.0,ENE,4.6,-,N/A,,Clear,60,2012-10-03 04:15:00
12:34 AM,50.7,47.5,89,29.96,10.0,NE,4.6,-,N/A,,Clear,40,2012-10-03 04:34:00
12:55 AM,48.4,45.0,88,29.96,10.0,NE,3.5,-,N/A,,Clear,40,2012-10-03 04:55:00
1:15 AM,48.4,45.0,88,29.95,10.0,Calm,Calm,-,N/A,,Clear,0,2012-10-03 05:15:00
1:34 AM,48.4,45.5,90,29.95,10.0,ENE,3.5,-,N/A,,Clear,60,2012-10-03 05:34:00
1:55 AM,48.4,45.5,90,29.96,10.0,Calm,Calm,-,N/A,,Clear,0,2012-10-03 05:55:00
2:15 AM,47.1,44.1,89,29.96,10.0,ENE,3.5,-,N/A,,Clear,60,2012-10-03 06:15:00
2:34 AM,44.4,41.5,90,29.96,10.0,ENE,3.5,-,N/A,,Clear,60,2012-10-03 06:34:00
2:55 AM,41.7,38.7,89,29.96,10.0,ENE,4.6,-,N/A,,Clear,60,2012-10-03 06:55:00
3:15 AM,42.1,39.2,90,29.96,10.0,East,4.6,-,N/A,,Clear,80,2012-10-03 07:15:00
3:34 AM,42.1,39.2,90,29.96,7.0,ENE,3.5,-,N/A,,Scattered Clouds,70,2012-10-03 07:34:00
3:55 AM,42.3,39.4,90,29.96,0.5,NE,4.6,-,N/A,Fog,Fog,50,2012-10-03 07:55:00
4:15 AM,43.2,40.5,90,29.96,0.2,NE,4.6,-,N/A,,Unknown,40,2012-10-03 08:15:00
4:35 AM,43.7,41.2,91,29.96,0.2,NE,5.8,-,N/A,,Unknown,50,2012-10-03 08:35:00
4:55 AM,43.3,41.0,91,29.96,0.2,ENE,5.8,-,N/A,,Unknown,60,2012-10-03 08:55:00
5:15 AM,44.6,42.1,91,29.96,0.2,ENE,5.8,-,N/A,,Unknown,60,2012-10-03 09:15:00
5:35 AM,42.8,40.3,91,29.96,0.2,ENE,5.8,-,N/A,,Unknown,60,2012-10-03 09:35:00
5:55 AM,42.1,39.6,91,29.96,0.2,ENE,5.8,-,N/A,,Unknown,60,2012-10-03 09:55:00
6:15 AM,42.1,39.6,91,29.96,0.2,ENE,6.9,-,N/A,,Unknown,60,2012-10-03 10:15:00
6:55 AM,43.3,40.8,91,29.97,0.2,ENE,5.8,-,N/A,,Unknown,70,2012-10-03 10:55:00
7:15 AM,43.7,41.2,91,29.98,0.2,ENE,8.1,-,N/A,,Unknown,70,2012-10-03 11:15:00
7:35 AM,45.9,43.7,92,29.98,1.0,ENE,6.9,-,N/A,,Overcast,60,2012-10-03 11:35:00
7:55 AM,45.9,43.7,92,29.99,1.2,ENE,6.9,-,N/A,,Overcast,70,2012-10-03 11:55:00
8:15 AM,48.4,46.0,92,29.99,0.5,ENE,5.8,-,N/A,Fog,Fog,70,2012-10-03 12:15:00
8:35 AM,48.4,46.0,92,30.00,0.5,ENE,8.1,-,N/A,Fog,Fog,60,2012-10-03 12:35:00
8:54 AM,49.6,47.3,92,29.99,5.0,ENE,8.1,-,N/A,,Overcast,60,2012-10-03 12:54:00
9:15 AM,49.6,47.3,92,29.99,2.5,ENE,9.2,-,N/A,,Overcast,70,2012-10-03 13:15:00
9:35 AM,49.6,47.3,92,29.99,0.8,ENE,9.2,-,N/A,,Overcast,60,2012-10-03 13:35:00
9:54 AM,51.3,48.9,92,29.99,0.8,ENE,9.2,-,N/A,,Overcast,70,2012-10-03 13:54:00
10:15 AM,51.3,48.9,92,29.99,1.2,ENE,8.1,-,N/A,,Overcast,70,2012-10-03 14:15:00
10:35 AM,53.6,51.1,91,29.99,1.2,ENE,9.2,-,N/A,,Overcast,70,2012-10-03 14:35:00
10:54 AM,53.6,51.1,91,30.00,0.2,ENE,6.9,-,N/A,Fog,Fog,70,2012-10-03 14:54:00
11:15 AM,53.6,51.1,91,30.00,0.5,ENE,8.1,-,N/A,Fog,Fog,70,2012-10-03 15:15:00
11:35 AM,55.4,53.1,92,29.99,10.0,ENE,8.1,-,N/A,,Overcast,70,2012-10-03 15:35:00
11:55 AM,55.9,53.6,92,29.99,10.0,East,8.1,-,N/A,,Overcast,80,2012-10-03 15:55:00
12:15 PM,57.4,54.3,90,29.98,10.0,ENE,8.1,-,N/A,,Mostly Cloudy,70,2012-10-03 16:15:00
12:35 PM,58.8,54.3,85,29.98,10.0,East,8.1,-,N/A,,Scattered Clouds,80,2012-10-03 16:35:00
12:55 PM,61.0,53.1,75,29.97,10.0,East,8.1,-,N/A,,Scattered Clouds,90,2012-10-03 16:55:00
1:15 PM,59.9,52.7,77,29.98,10.0,ENE,8.1,-,N/A,,Mostly Cloudy,70,2012-10-03 17:15:00
1:35 PM,61.0,53.1,75,29.97,10.0,East,6.9,-,N/A,,Overcast,90,2012-10-03 17:35:00
1:55 PM,61.0,52.3,73,29.97,10.0,ENE,6.9,-,N/A,,Overcast,70,2012-10-03 17:55:00
2:15 PM,63.7,53.2,69,29.96,10.0,East,5.8,-,N/A,,Overcast,80,2012-10-03 18:15:00
2:35 PM,66.0,54.1,65,29.96,7.0,East,5.8,-,N/A,,Overcast,90,2012-10-03 18:35:00
2:55 PM,66.2,54.3,65,29.96,10.0,ESE,5.8,-,N/A,,Mostly Cloudy,110,2012-10-03 18:55:00
3:15 PM,66.2,54.1,65,29.96,10.0,ESE,5.8,-,N/A,,Overcast,120,2012-10-03 19:15:00
3:35 PM,66.2,53.8,64,29.96,10.0,ENE,4.6,-,N/A,,Overcast,70,2012-10-03 19:35:00
3:55 PM,67.5,55.0,64,29.96,10.0,ESE,5.8,-,N/A,,Overcast,110,2012-10-03 19:55:00
4:15 PM,67.5,54.9,64,29.95,10.0,ENE,5.8,-,N/A,,Overcast,70,2012-10-03 20:15:00
4:35 PM,66.2,53.6,64,29.96,10.0,East,3.5,-,N/A,,Overcast,90,2012-10-03 20:35:00
4:55 PM,66.2,54.9,67,29.96,10.0,East,4.6,-,N/A,,Overcast,80,2012-10-03 20:55:00
5:15 PM,63.7,53.6,70,29.96,10.0,East,4.6,-,N/A,,Overcast,80,2012-10-03 21:15:00
5:35 PM,61.9,53.1,73,29.96,10.0,East,4.6,-,N/A,,Overcast,80,2012-10-03 21:35:00
5:55 PM,61.0,53.1,75,29.96,10.0,East,3.5,-,N/A,Rain,Light Rain,90,2012-10-03 21:55:00
6:15 PM,59.9,54.5,82,29.96,7.0,ESE,3.5,-,N/A,Rain,Light Rain,110,2012-10-03 22:15:00
6:55 PM,58.5,54.5,87,29.97,10.0,NE,3.5,-,N/A,Rain,Light Rain,50,2012-10-03 22:55:00
7:15 PM,58.5,54.7,87,29.97,10.0,NNE,3.5,-,N/A,,Overcast,30,2012-10-03 23:15:00
7:34 PM,58.5,54.5,87,29.97,10.0,NNE,3.5,-,N/A,,Overcast,30,2012-10-03 23:34:00
7:55 PM,58.5,53.8,84,29.97,10.0,NE,5.8,-,N/A,,Overcast,50,2012-10-03 23:55:00
8:15 PM,58.5,53.8,84,29.97,10.0,ENE,4.6,-,N/A,,Overcast,60,2012-10-04 00:15:00
8:34 PM,58.5,54.3,86,29.97,10.0,NE,5.8,-,N/A,,Overcast,50,2012-10-04 00:34:00
8:55 PM,58.5,54.3,86,29.98,7.0,NE,6.9,-,N/A,Rain,Light Rain,50,2012-10-04 00:55:00
9:15 PM,58.1,54.1,87,29.98,10.0,ENE,6.9,-,N/A,,Light Drizzle,60,2012-10-04 01:15:00
9:34 PM,57.9,54.3,88,29.98,10.0,NE,4.6,-,N/A,,Light Drizzle,50,2012-10-04 01:34:00
9:55 PM,58.3,54.7,88,29.98,10.0,NE,4.6,-,N/A,Rain,Light Rain,50,2012-10-04 01:55:00
10:15 PM,58.5,54.7,87,29.98,10.0,ENE,5.8,-,N/A,,Overcast,60,2012-10-04 02:15:00
10:34 PM,58.5,54.5,87,29.98,10.0,ENE,4.6,-,N/A,,Overcast,70,2012-10-04 02:34:00
10:55 PM,58.5,54.9,88,29.98,10.0,East,4.6,-,N/A,Rain,Rain,80,2012-10-04 02:55:00
11:15 PM,57.2,53.8,88,29.98,10.0,East,4.6,-,N/A,,Overcast,80,2012-10-04 03:15:00
11:34 PM,57.2,54.0,89,29.98,7.0,NE,3.5,-,N/A,,Overcast,40,2012-10-04 03:34:00
11:55 PM,56.7,53.8,90,29.97,7.0,NE,4.6,-,N/A,Rain,Rain,50,2012-10-04 03:55:00